Simultaneous Nadir Overpasses (SNOs) Predictions

Prediction of SNOs between NOAA-19 and TERRA Satellite Orbit:

Table of predicted SNOs for the next 14.0 days since TLE Epoch: 7/17/2021
Index Date (NOAA-19) Time (NOAA-19) Lat,Lon (NOAA-19) SZA (NOAA-19 ) Date (TERRA) Time (TERRA) Lat,Lon (TERRA) SZA (TERRA ) Distance(km) Time Diff (sec)
1 07/19/2021 06:24:57 -80.34, -62.57 118.92 07/19/2021 06:25:55 -80.32, -62.71 118.92 2.92 58
2 07/19/2021 07:15:53 80.33, 104.90 61.10 07/19/2021 07:15:21 80.33, 104.95 61.09 0.95 32
3 07/21/2021 12:49:05 -80.33,-158.31 118.48 07/21/2021 12:49:02 -80.35,-158.27 118.46 2.65 3
4 07/23/2021 18:22:10 80.34, -61.81 61.97 07/23/2021 18:22:43 80.34, -61.80 61.98 0.76 33
5 07/23/2021 19:13:13 -80.32, 105.93 118.00 07/23/2021 19:12:10 -80.34, 105.84 118.02 3.02 63
6 07/25/2021 23:55:23 -80.35, 34.87 117.56 07/25/2021 23:56:24 -80.36, 34.97 117.51 2.30 61
7 07/26/2021 00:46:18 80.34,-157.72 62.46 07/26/2021 00:45:51 80.32,-157.72 62.44 2.00 27
8 07/28/2021 06:19:31 -80.34, -60.96 117.03 07/28/2021 06:19:32 -80.35, -60.94 117.03 0.48 1
9 07/30/2021 11:52:34 80.35, 35.83 63.51 07/30/2021 11:53:12 80.36, 35.74 63.53 2.18 38



Historial Predications of SNOs between NOAA-19 and TERRA
